Haines, AK

7:57 PM AKST on February 23, 2018 (GMT -0900)
Haines

Weather History for PAHN - February, 2013

Change the Weather History Date:

Saturday, February 16, 2013

  Actual Average Record
Temperature  
Mean Temperature 35 °F -  
Max Temperature 37 °F 32 °F 43 °F (1977)
Min Temperature 33 °F 23 °F 2 °F (1990)
Degree Days  
Heating Degree Days 30    
Moisture  
Dew Point 32 °F    
Average Humidity 86    
Maximum Humidity 100    
Minimum Humidity 67    
Precipitation  
Precipitation 0.00 in - - ()
Sea Level Pressure  
Sea Level Pressure 29.98 in    
Wind  
Wind Speed 6 mph (ENE)    
Max Wind Speed 12 mph    
Max Gust Speed 26 mph    
Visibility 10 miles    
Events      
Averages and records for this station are not official NWS values.
T = Trace of Precipitation, MM = Missing Value Source: NWS Daily Summary

Daily Weather History Graph

Daily Weather History Graph

Search for Another Location

Airport or City:

Trip Planner

Search our weather history database for the weather conditions in past years. The results will help you decide how hot, cold, wet, or windy it might be!

Date:

Astronomy

Feb. 16, 2013 Rise Set
Actual Time 7:33 AM AKST 4:59 PM AKST
Civil Twilight 6:51 AM AKST 5:42 PM AKST
Nautical Twilight 6:03 AM AKST 6:29 PM AKST
Astronomical Twilight 5:16 AM AKST 7:16 PM AKST
Moon 9:05 AM AKST (2/16) 12:49 AM AKST (2/16)
Length of Visible Light 10h 51m
Length of Day
9h 26m
Waxing Crescent, 41% of the Moon is Illuminated
Feb 16
Waxing Crescent
Feb 17
First Quarter
Feb 25
Full
Mar 4
Last Quarter
Mar 11
New

Hourly Weather History & Observations

Time (AKST) Temp. Windchill Dew Point Humidity Pressure Visibility Wind Dir Wind Speed Gust Speed Precip Events Conditions
12:43 AM 33.8 °F 30.8 °F 33.8 °F 100% 29.85 in 10.0 mi West 3.5 mph - N/A   Overcast
12:54 AM 33.1 °F 26.9 °F 33.1 °F 100% 29.87 in 10.0 mi West 6.9 mph - N/A   Overcast
1:14 AM 33.8 °F 26.4 °F 32.0 °F 93% 29.86 in 10.0 mi WNW 9.2 mph - N/A   Overcast
1:26 AM 33.8 °F 27.7 °F 32.0 °F 93% 29.87 in 10.0 mi WNW 6.9 mph - 0.00 in   Overcast
1:54 AM 33.1 °F 27.7 °F 32.0 °F 96% 29.88 in 10.0 mi West 5.8 mph - 0.00 in   Overcast
2:20 AM 33.8 °F 29.6 °F 30.2 °F 87% 29.87 in 10.0 mi WNW 4.6 mph - N/A   Overcast
3:28 AM 33.8 °F 27.7 °F 32.0 °F 93% 29.90 in 10.0 mi NW 6.9 mph - N/A   Overcast
3:54 AM 33.1 °F 26.1 °F 32.0 °F 96% 29.91 in 10.0 mi WNW 8.1 mph - N/A   Overcast
4:07 AM 33.8 °F 30.8 °F 32.0 °F 93% 29.91 in 10.0 mi Variable 3.5 mph - N/A   Overcast
4:16 AM 33.8 °F 29.6 °F 33.8 °F 100% 29.91 in 10.0 mi NW 4.6 mph - N/A   Overcast
4:54 AM 34.0 °F - 33.1 °F 96% 29.92 in 10.0 mi Calm Calm - N/A   Overcast
5:46 AM 37.4 °F 32.1 °F 33.8 °F 87% 29.92 in 10.0 mi ENE 6.9 mph - N/A   Overcast
5:54 AM 37.0 °F 33.3 °F 34.0 °F 89% 29.93 in 10.0 mi Variable 4.6 mph - N/A   Overcast
6:54 AM 36.0 °F - 33.1 °F 89% 29.94 in 10.0 mi Calm Calm - N/A   Overcast
7:54 AM 34.0 °F - 33.1 °F 96% 29.96 in 10.0 mi Calm Calm - N/A   Mostly Cloudy
8:02 AM 33.8 °F - 33.8 °F 100% 29.95 in 10.0 mi Calm Calm - N/A   Mostly Cloudy
8:36 AM 37.4 °F 31.4 °F 33.8 °F 87% 29.95 in 10.0 mi East 8.1 mph - N/A   Overcast
8:54 AM 37.0 °F 31.0 °F 33.1 °F 86% 29.96 in 10.0 mi East 8.1 mph - N/A   Mostly Cloudy
9:03 AM 37.4 °F 33.8 °F 33.8 °F 87% 29.96 in 10.0 mi Variable 4.6 mph - N/A   Mostly Cloudy
9:54 AM 37.9 °F 32.7 °F 34.0 °F 86% 29.98 in 10.0 mi East 6.9 mph - N/A   Overcast
10:45 AM 37.4 °F 30.8 °F 35.6 °F 93% 29.98 in 10.0 mi ENE 9.2 mph - N/A   Overcast
10:54 AM 37.9 °F 30.9 °F 35.1 °F 89% 29.99 in 10.0 mi East 10.4 mph - N/A   Overcast
11:32 AM 37.4 °F 31.4 °F 33.8 °F 87% 30.00 in 10.0 mi East 8.1 mph 16.1 mph N/A   Overcast
11:54 AM 37.9 °F 31.5 °F 34.0 °F 86% 30.00 in 10.0 mi East 9.2 mph - N/A   Overcast
12:02 PM 37.4 °F 31.4 °F 33.8 °F 87% 30.00 in 10.0 mi East 8.1 mph - N/A   Overcast
12:54 PM 37.9 °F 30.5 °F 35.1 °F 89% 30.01 in 10.0 mi East 11.5 mph - N/A   Overcast
1:17 PM 37.4 °F 30.3 °F 33.8 °F 87% 30.00 in 10.0 mi East 10.4 mph 26.5 mph N/A   Overcast
1:54 PM 37.9 °F 31.5 °F 34.0 °F 86% 30.02 in 10.0 mi East 9.2 mph - N/A   Overcast
2:24 PM 37.4 °F 29.8 °F 33.8 °F 87% 30.02 in 10.0 mi East 11.5 mph 20.7 mph N/A   Overcast
2:54 PM 37.9 °F 32.1 °F 32.0 °F 79% 30.04 in 10.0 mi East 8.1 mph - N/A   Overcast
3:54 PM 37.9 °F 33.5 °F 28.0 °F 68% 30.04 in 10.0 mi Variable 5.8 mph - N/A   Overcast
4:54 PM 37.0 °F - 27.0 °F 67% 30.06 in 10.0 mi Calm Calm - N/A   Overcast
5:54 PM 37.0 °F 31.0 °F 28.0 °F 70% 30.08 in 10.0 mi East 8.1 mph - N/A   Overcast
6:54 PM 37.0 °F 30.4 °F 28.0 °F 70% 30.08 in 10.0 mi ESE 9.2 mph - N/A   Overcast
7:54 PM 36.0 °F 30.3 °F 27.0 °F 70% 30.08 in 10.0 mi East 6.9 mph - N/A   Overcast
8:54 PM 36.0 °F 30.3 °F 27.0 °F 70% 30.09 in 10.0 mi Variable 6.9 mph - N/A   Overcast
9:54 PM 36.0 °F 31.1 °F 28.0 °F 73% 30.11 in 10.0 mi East 5.8 mph 16.1 mph N/A   Overcast
10:54 PM 35.1 °F 29.3 °F 28.0 °F 76% 30.09 in 10.0 mi East 6.9 mph 16.1 mph N/A   Mostly Cloudy
11:54 PM 35.1 °F 27.9 °F 27.0 °F 72% 30.09 in 10.0 mi East 9.2 mph - N/A   Scattered Clouds